• In Uzbekistan
  • List of Countries
  • For 7 days
  • Water Temperature
  • Satellite Maps
  • Weather Map
  • Weather Widgets
  • user-avatar
    Login

    Hourly Weather Liskowate

    Today, 23 September, Sunday

    Time Temperature Precipitation Wind Pressure Humidity
    00:00 +7°C° 0 mm 2 mps 724 mmHg 82%
    01:00 +7°C° 0 mm 2 mps 724 mmHg 82%
    02:00 +9°C° 0 mm 1 mps 724 mmHg 83%
    03:00 +8°C° 0 mm 2 mps 723 mmHg 83%
    04:00 +7°C° 0 mm 2 mps 723 mmHg 84%
    05:00 +7°C° 0 mm 2 mps 723 mmHg 85%
    06:00 +8°C° 0 mm 2 mps 723 mmHg 83%
    07:00 +8°C° 0 mm 3 mps 723 mmHg 82%
    08:00 +9°C° 0 mm 3 mps 723 mmHg 80%
    09:00 +11°C° 0 mm 3 mps 723 mmHg 73%
    10:00 +12°C° 0 mm 4 mps 723 mmHg 65%
    11:00 +14°C° 0 mm 4 mps 723 mmHg 58%
    12:00 +15°C° 0 mm 4 mps 723 mmHg 57%
    13:00 +15°C° 0 mm 5 mps 723 mmHg 55%
    14:00 +16°C° 0 mm 5 mps 722 mmHg 53%
    15:00 +15°C° 0 mm 5 mps 722 mmHg 56%
    16:00 +15°C° 0 mm 4 mps 721 mmHg 58%
    17:00 +14°C° 0 mm 4 mps 721 mmHg 60%
    18:00 +14°C° 0 mm 4 mps 720 mmHg 61%
    19:00 +14°C° 0 mm 5 mps 720 mmHg 62%
    20:00 +13°C° 0 mm 5 mps 719 mmHg 63%
    21:00 +14°C° 0 mm 6 mps 718 mmHg 60%
    22:00 +14°C° 0 mm 7 mps 716 mmHg 57%
    23:00 +13°C° 0 mm 8 mps 715 mmHg 54%

    Tomorrow, 24 September, Monday

    Time Temperature Precipitation Wind Pressure Humidity
    00:00 +13°C° 0.4 mm 8 mps 714 mmHg 59%
    01:00 +13°C° 0.4 mm 9 mps 713 mmHg 63%
    02:00 +13°C° 0.4 mm 9 mps 713 mmHg 68%
    03:00 +13°C° 2.9 mm 9 mps 712 mmHg 75%
    04:00 +12°C° 2.9 mm 8 mps 712 mmHg 82%
    05:00 +12°C° 2.9 mm 8 mps 712 mmHg 89%
    06:00 +11°C° 1.1 mm 8 mps 713 mmHg 89%
    07:00 +9°C° 1.1 mm 8 mps 714 mmHg 89%
    08:00 +8°C° 1.1 mm 7 mps 715 mmHg 90%
    09:00 +8°C° 0.3 mm 7 mps 717 mmHg 88%
    10:00 +8°C° 0.3 mm 7 mps 718 mmHg 86%
    11:00 +7°C° 0.3 mm 6 mps 720 mmHg 84%
    12:00 +8°C° 0.3 mm 7 mps 720 mmHg 81%
    13:00 +8°C° 0.3 mm 7 mps 721 mmHg 78%
    14:00 +9°C° 0.3 mm 8 mps 721 mmHg 75%
    15:00 +8°C° 0.1 mm 7 mps 722 mmHg 72%
    16:00 +8°C° 0.1 mm 7 mps 722 mmHg 68%
    17:00 +8°C° 0.1 mm 7 mps 722 mmHg 65%
    18:00 +7°C° 0 mm 6 mps 723 mmHg 67%
    19:00 +6°C° 0 mm 5 mps 723 mmHg 69%
    20:00 +5°C° 0 mm 5 mps 724 mmHg 72%
    21:00 +5°C° 0 mm 5 mps 724 mmHg 71%
    22:00 +3°C° 0 mm 5 mps 724 mmHg 70%
    23:00 +3°C° 0 mm 5 mps 724 mmHg 70%

    Day after tomorrow, 25 September, Tuesday

    Time Temperature Precipitation Wind Pressure Humidity
    00:00 +3°C° 0.3 mm 6 mps 725 mmHg 76%
    01:00 +3°C° 0.3 mm 6 mps 725 mmHg 81%
    02:00 +3°C° 0.3 mm 6 mps 725 mmHg 87%
    03:00 +3°C° 0.2 mm 5 mps 726 mmHg 88%
    04:00 +3°C° 0.2 mm 5 mps 726 mmHg 90%
    05:00 +3°C° 0.2 mm 4 mps 727 mmHg 91%
    06:00 +2°C° 0 mm 5 mps 727 mmHg 89%
    07:00 +3°C° 0 mm 5 mps 728 mmHg 88%
    08:00 +3°C° 0 mm 5 mps 729 mmHg 87%
    09:00 +5°C° 0.1 mm 5 mps 730 mmHg 79%
    10:00 +6°C° 0.1 mm 5 mps 730 mmHg 71%
    11:00 +7°C° 0.1 mm 6 mps 731 mmHg 64%
    12:00 +7°C° 0.1 mm 6 mps 731 mmHg 60%
    13:00 +8°C° 0.1 mm 6 mps 731 mmHg 57%
    14:00 +8°C° 0.1 mm 6 mps 731 mmHg 53%
    15:00 +8°C° 0.1 mm 6 mps 731 mmHg 55%
    16:00 +8°C° 0.1 mm 5 mps 731 mmHg 57%
    17:00 +7°C° 0.1 mm 4 mps 731 mmHg 59%
    18:00 +6°C° 0 mm 4 mps 732 mmHg 63%
    19:00 +4°C° 0 mm 3 mps 732 mmHg 67%
    20:00 +4°C° 0 mm 2 mps 733 mmHg 71%
    21:00 +4°C° 0 mm 2 mps 733 mmHg 72%
    22:00 +3°C° 0 mm 2 mps 733 mmHg 72%
    23:00 +3°C° 0 mm 2 mps 734 mmHg 73%

    26 September, Wednesday

    Time Temperature Precipitation Wind Pressure Humidity
    00:00 +2°C° 0 mm 2 mps 734 mmHg 74%
    01:00 +2°C° 0 mm 2 mps 734 mmHg 75%
    02:00 +1°C° 0 mm 2 mps 734 mmHg 76%
    03:00 +1°C° 0 mm 2 mps 734 mmHg 77%
    04:00 +2°C° 0 mm 1 mps 735 mmHg 79%
    05:00 +1°C° 0 mm 1 mps 735 mmHg 80%
    06:00 +2°C° 0 mm 1 mps 735 mmHg 76%
    07:00 +3°C° 0 mm 1 mps 735 mmHg 73%
    08:00 +4°C° 0 mm 1 mps 735 mmHg 69%
    09:00 +6°C° 0 mm 1 mps 735 mmHg 61%
    10:00 +8°C° 0 mm 2 mps 736 mmHg 53%
    11:00 +10°C° 0 mm 2 mps 736 mmHg 45%
    12:00 +10°C° 0 mm 2 mps 735 mmHg 43%
    13:00 +12°C° 0 mm 2 mps 735 mmHg 41%
    14:00 +13°C° 0 mm 2 mps 734 mmHg 39%
    15:00 +12°C° 0 mm 2 mps 734 mmHg 43%
    16:00 +12°C° 0 mm 2 mps 733 mmHg 47%
    17:00 +12°C° 0 mm 1 mps 733 mmHg 51%
    18:00 +9°C° 0 mm 2 mps 733 mmHg 53%
    19:00 +8°C° 0 mm 2 mps 732 mmHg 55%
    20:00 +5°C° 0 mm 3 mps 732 mmHg 57%
    21:00 +5°C° 0 mm 3 mps 732 mmHg 56%
    22:00 +5°C° 0 mm 3 mps 732 mmHg 56%
    23:00 +5°C° 0 mm 4 mps 732 mmHg 55%

    27 September, Thursday

    Time Temperature Precipitation Wind Pressure Humidity
    00:00 +6°C° 0 mm 4 mps 731 mmHg 55%
    01:00 +6°C° 0 mm 4 mps 731 mmHg 54%
    02:00 +6°C° 0 mm 4 mps 731 mmHg 53%
    03:00 +6°C° 0 mm 4 mps 730 mmHg 53%
    04:00 +6°C° 0 mm 4 mps 730 mmHg 53%
    05:00 +5°C° 0 mm 5 mps 730 mmHg 53%
    06:00 +6°C° 0 mm 5 mps 730 mmHg 53%
    07:00 +6°C° 0 mm 5 mps 729 mmHg 52%
    08:00 +6°C° 0 mm 5 mps 729 mmHg 52%
    09:00 +7°C° 0.1 mm 5 mps 729 mmHg 54%
    10:00 +7°C° 0.1 mm 5 mps 729 mmHg 56%
    11:00 +7°C° 0.1 mm 5 mps 729 mmHg 58%
    12:00 +9°C° 0 mm 5 mps 729 mmHg 54%
    13:00 +12°C° 0 mm 5 mps 729 mmHg 49%
    14:00 +15°C° 0 mm 5 mps 729 mmHg 45%
    15:00 +14°C° 0 mm 5 mps 728 mmHg 48%
    16:00 +14°C° 0 mm 4 mps 728 mmHg 51%
    17:00 +13°C° 0 mm 4 mps 728 mmHg 54%
    18:00 +12°C° 0 mm 4 mps 728 mmHg 55%
    19:00 +11°C° 0 mm 3 mps 728 mmHg 57%
    20:00 +10°C° 0 mm 3 mps 728 mmHg 58%
    21:00 +10°C° 0 mm 3 mps 728 mmHg 58%
    22:00 +10°C° 0 mm 3 mps 728 mmHg 58%
    23:00 +10°C° 0 mm 3 mps 728 mmHg 58%

    28 September, Friday

    Time Temperature Precipitation Wind Pressure Humidity
    00:00 +9°C° 0 mm 2 mps 728 mmHg 59%
    01:00 +9°C° 0 mm 2 mps 727 mmHg 60%
    02:00 +9°C° 0 mm 2 mps 727 mmHg 61%
    03:00 +8°C° 0 mm 2 mps 727 mmHg 62%
    04:00 +8°C° 0 mm 2 mps 726 mmHg 63%
    05:00 +8°C° 0 mm 2 mps 726 mmHg 64%
    06:00 +8°C° 0 mm 2 mps 726 mmHg 63%
    07:00 +9°C° 0 mm 2 mps 726 mmHg 63%
    08:00 +10°C° 0 mm 3 mps 726 mmHg 62%
    09:00 +12°C° 0 mm 3 mps 726 mmHg 58%
    10:00 +14°C° 0 mm 3 mps 726 mmHg 53%
    11:00 +17°C° 0 mm 3 mps 726 mmHg 48%
    12:00 +18°C° 0 mm 3 mps 726 mmHg 48%
    13:00 +19°C° 0 mm 3 mps 726 mmHg 48%
    14:00 +20°C° 0 mm 3 mps 726 mmHg 47%
    15:00 +19°C° 0 mm 3 mps 725 mmHg 52%
    16:00 +19°C° 0 mm 2 mps 725 mmHg 56%
    17:00 +18°C° 0 mm 2 mps 725 mmHg 61%
    18:00 +16°C° 0 mm 1 mps 725 mmHg 64%
    19:00 +14°C° 0 mm 1 mps 725 mmHg 67%
    20:00 +12°C° 0 mm 1 mps 725 mmHg 70%
    21:00 +12°C° 0 mm 1 mps 725 mmHg 70%
    22:00 +12°C° 0 mm 1 mps 725 mmHg 71%
    23:00 +11°C° 0 mm 1 mps 725 mmHg 72%
    Show more